Вернуться в каталог

STARLINK-2717

АктивенСвязьVLEO
NORAD 48659·PAYLOAD·🇺🇸 United States

Запущен May 26, 2021 с Cape Canaveral Space Force Station

Loading…

Ближайшие Пролёты (ближайшие 24 часа)

TLE

СвежийSource: CelesTrak SupGP

Эпоха: Sep 15, 2026, 01:23 UTC

1 48659C 21044X   26258.05812500  .00053295  00000+0  17134-2 0  2586
2 48659  53.1575 312.5798 0001161  98.1181 280.7251 15.31684434    17

Отслеживайте STARLINK-2717 в реальном времени с AllMySat

Download on the App Store